Wind_Speed
34 27 23 27 27 24 25 24 25 25 23 23 20 20 19 19 21 23 23 23 23 23 24 25 25 24 24 25 24 25 27 29
31 31 26 25 25 23 23 24 24 25 24 25 25 24 23 22 23 25 26 26 26 27 28 29 31 30 32 32 32 31 32 34
32 32 29 30 30 31 28 27 26 27 28 27 27 25 25 25 26 27 28 29 30 30 31 32 33 33 35 36 37 36 35 38
34 33 34 36 32 35 32 27 29 29 29 29 28 27 28 28 28 28 30 31 31 32 33 33 33 35 36 38 41 42 40 39
38 35 33 31 29 33 31 30 30 31 30 29 30 30 30 30 30 32 33 34 35 35 36 37 37 37 38 40 43 45 45 45
36 35 36 36 32 33 33 34 33 32 31 31 32 32 33 33 34 35 36 37 37 37 39 38 39 41 43 46 47 47 48 49
35 36 37 36 38 32 34 36 38 37 35 34 33 35 37 38 39 38 38 38 39 40 41 43 45 47 48 49 50 50 52 54
34 36 37 35 41 42 37 39 39 37 36 37 38 41 41 41 41 39 39 40 42 44 46 48 49 50 51 52 53 55 58 59
36 40 38 37 36 43 48 40 42 42 45 42 43 40 41 42 42 41 41 42 45 48 49 50 51 54 56 58 59 62 63 62
36 38 39 39 38 35 41 46 54 50 50 49 48 45 44 46 44 43 44 46 48 49 50 54 56 59 60 62 62 61 59 58
39 42 42 42 40 39 41 45 42 46 47 45 45 46 46 44 45 46 47 47 48 51 55 58 59 61 61 60 58 57 56 54
43 41 42 40 40 39 39 43 43 43 46 47 45 44 44 43 43 45 48 50 52 55 56 59 59 56 54 55 57 59 59 57
44 46 43 41 40 38 39 44 46 46 45 50 44 43 41 44 47 50 51 53 55 56 56 55 53 54 55 58 60 61 62 64
34 37 37 40 39 38 40 45 44 45 42 41 40 40 44 48 49 50 51 52 52 52 52 53 55 56 59 62 62 63 65 67
39 38 39 43 42 42 45 45 46 43 39 40 42 45 49 49 47 47 48 47 47 48 51 55 58 61 61 64 67 70 70 73
35 33 39 41 43 43 41 39 39 41 45 47 48 50 48 47 46 45 43 44 46 50 53 55 57 59 59 63 66 70 73 75
35 35 38 40 41 41 39 40 45 49 50 50 50 48 45 42 41 41 43 46 50 54 57 59 61 61 63 67 71 74 76 78
39 34 38 41 40 41 44 46 47 48 49 48 43 40 40 40 41 44 49 53 55 55 56 57 59 62 66 70 73 75 78 83
41 39 40 39 38 39 41 44 46 45 41 40 40 39 40 42 44 49 52 52 52 53 56 60 62 65 69 71 72 77 82 89
Wind_Direction
265 260 239 233 233 235 242 244 247 252 259 264 263 262 261 259 264 269 272 273 271 269 268 267 266 265 269 277 282 283 283 283
259 264 260 256 257 252 249 252 250 255 257 255 259 262 261 263 267 269 273 275 274 270 267 268 269 268 271 278 279 280 282 281
254 259 261 262 258 258 251 251 254 255 255 256 259 264 265 267 268 268 268 270 269 270 268 269 271 273 276 279 280 282 284 283
247 249 254 252 253 253 252 248 250 254 258 263 266 267 269 272 273 274 274 274 272 271 270 270 271 273 277 278 281 285 285 283
248 244 245 249 257 259 258 253 253 259 264 269 274 275 276 277 278 277 276 275 274 274 274 275 276 277 278 280 283 284 287 288
246 243 239 242 245 254 255 257 257 260 260 262 264 269 271 271 272 273 274 274 276 277 276 276 277 278 280 282 283 283 285 286
249 249 247 245 248 240 250 253 258 260 263 263 264 270 271 272 272 273 274 275 275 275 276 276 277 277 279 281 283 285 285 286
252 252 253 246 243 248 246 249 255 259 261 260 263 268 269 269 270 271 272 274 275 276 278 279 281 283 284 285 285 285 284 284
246 251 255 257 246 246 244 242 243 250 254 255 259 265 267 270 272 274 275 275 276 276 278 280 281 281 281 282 282 282 282 282
252 254 257 261 262 253 250 247 245 246 248 253 259 260 265 270 274 272 271 272 275 278 281 282 283 285 286 285 286 284 283 280
251 256 257 257 258 259 256 249 247 251 252 258 263 265 265 269 270 270 272 274 278 281 282 284 286 287 288 287 286 284 282 282
249 253 252 250 249 251 252 247 248 253 260 262 267 268 268 268 268 270 274 278 280 281 285 287 286 287 286 286 286 285 284 283
249 246 250 251 238 235 245 249 255 258 259 263 264 264 261 267 274 280 281 282 284 287 286 285 284 284 285 288 289 285 283 284
243 243 250 241 235 235 239 245 255 259 259 264 265 267 272 277 279 281 281 283 284 283 283 283 283 285 287 288 287 285 284 286
242 246 242 236 237 237 240 246 253 259 260 263 268 271 274 278 278 279 279 279 280 282 283 283 285 286 287 286 283 283 286 288
249 250 248 245 245 249 249 250 251 258 260 259 261 269 274 275 276 275 278 281 283 285 286 288 289 287 284 284 286 288 292 293
239 242 245 247 248 246 247 252 253 254 258 264 269 271 271 271 274 279 282 285 288 291 292 290 287 288 290 292 294 294 296 296
240 247 249 251 248 245 246 252 258 263 264 266 267 266 268 275 281 286 289 290 292 291 291 292 293 294 295 294 296 296 297 302
243 240 241 244 246 251 255 257 257 258 262 264 264 268 274 280 286 290 292 292 293 294 296 298 298 297 297 296 297 300 302 306
Height
5780 5785 5792 5794 5798 5799 5799 5801 5804 5804 5804 5804 5805 5808 5808 5808 5809 5808 5808 5808 5810 5810 5810 5809 5809 5809 5809 5809 5808 5807 5806 5804
5774 5776 5779 5783 5786 5789 5793 5795 5797 5797 5799 5800 5801 5801 5802 5803 5804 5804 5802 5802 5802 5803 5803 5803 5802 5802 5802 5801 5800 5799 5798 5796
5768 5768 5771 5774 5778 5780 5786 5788 5788 5790 5792 5794 5795 5794 5795 5796 5797 5798 5798 5796 5796 5795 5795 5796 5793 5793 5792 5790 5789 5789 5789 5786
5762 5764 5765 5768 5771 5774 5779 5782 5782 5783 5785 5785 5785 5786 5788 5789 5789 5789 5790 5789 5788 5788 5787 5787 5787 5785 5783 5781 5778 5777 5777 5777
5756 5759 5762 5762 5764 5766 5769 5771 5772 5774 5775 5777 5776 5777 5779 5779 5780 5781 5781 5781 5780 5779 5779 5778 5777 5776 5775 5773 5771 5768 5764 5763
5749 5753 5754 5755 5757 5759 5761 5762 5763 5765 5768 5768 5769 5770 5771 5772 5772 5771 5771 5770 5770 5770 5769 5768 5767 5766 5764 5762 5760 5757 5755 5752
5738 5742 5746 5748 5750 5752 5753 5754 5754 5756 5758 5759 5761 5762 5762 5763 5763 5762 5762 5761 5761 5760 5758 5757 5756 5754 5752 5750 5747 5745 5742 5740
5728 5732 5736 5741 5743 5744 5746 5745 5746 5746 5747 5749 5750 5752 5753 5753 5753 5753 5752 5752 5751 5749 5748 5746 5744 5742 5740 5738 5736 5733 5729 5725
5718 5721 5725 5728 5733 5734 5736 5736 5737 5736 5737 5739 5739 5741 5742 5743 5743 5742 5742 5741 5739 5738 5737 5736 5735 5733 5731 5728 5724 5720 5716 5712
5708 5711 5714 5716 5719 5724 5725 5725 5727 5728 5728 5729 5730 5731 5732 5732 5732 5731 5731 5729 5728 5728 5726 5724 5721 5718 5715 5712 5708 5705 5701 5698
5699 5701 5704 5707 5710 5711 5713 5715 5716 5717 5719 5721 5722 5722 5721 5721 5720 5720 5719 5718 5717 5715 5713 5711 5708 5704 5700 5696 5693 5689 5686 5681
5688 5691 5693 5695 5697 5700 5702 5703 5703 5706 5708 5710 5710 5711 5711 5710 5710 5710 5710 5708 5705 5702 5700 5697 5694 5690 5687 5684 5681 5678 5674 5669
5676 5678 5681 5684 5686 5688 5692 5692 5693 5697 5698 5699 5699 5699 5699 5699 5700 5699 5697 5695 5692 5690 5687 5684 5680 5677 5674 5670 5665 5661 5658 5655
5665 5667 5671 5673 5676 5678 5680 5683 5685 5686 5688 5688 5688 5688 5689 5689 5688 5687 5685 5683 5681 5678 5676 5673 5669 5664 5660 5656 5652 5648 5643 5637
5654 5656 5660 5663 5665 5668 5671 5672 5675 5677 5677 5677 5678 5679 5679 5679 5677 5675 5673 5670 5668 5665 5663 5659 5656 5651 5645 5641 5637 5631 5625 5620
5643 5647 5651 5654 5656 5658 5660 5664 5665 5665 5665 5665 5666 5667 5666 5665 5663 5661 5660 5658 5655 5652 5649 5645 5641 5636 5630 5626 5620 5614 5607 5599
5631 5634 5638 5642 5645 5648 5651 5654 5655 5654 5653 5654 5654 5654 5654 5654 5652 5651 5649 5646 5641 5637 5633 5630 5626 5621 5614 5608 5602 5595 5587 5578
5619 5623 5627 5631 5634 5637 5640 5641 5640 5641 5643 5644 5644 5645 5644 5643 5641 5639 5635 5632 5628 5624 5620 5616 5609 5603 5596 5590 5583 5575 5566 5557
5608 5610 5614 5620 5623 5626 5628 5628 5627 5628 5630 5632 5633 5633 5632 5629 5628 5625 5621 5617 5613 5609 5604 5598 5592 5586 5579 5571 5564 5556 5546 5535